Myrtle Beach, SC

10:16 AM EDT on July 28, 2017 (GMT -0400)
Myrtle Beach International

Weather History for KMYR - November, 2012

Change the Weather History Date:

Thursday, November 1, 2012

  Actual Average Record
Temperature  
Mean Temperature 50 °F -  
Max Temperature 62 °F 68 °F 83 °F (1950)
Min Temperature 39 °F 48 °F 28 °F (1954)
Degree Days  
Heating Degree Days 14    
Moisture  
Dew Point 32 °F    
Average Humidity 56    
Maximum Humidity 81    
Minimum Humidity 27    
Precipitation  
Precipitation 0.00 in - - ()
Sea Level Pressure  
Sea Level Pressure 29.83 in    
Wind  
Wind Speed 7 mph (West)    
Max Wind Speed 14 mph    
Max Gust Speed 20 mph    
Visibility 10 miles    
Events      
Averages and records for this station are not official NWS values.
T = Trace of Precipitation, MM = Missing Value Source: NWS Daily Summary

Daily Weather History Graph

Daily Weather History Graph

Search for Another Location

Airport or City:

Trip Planner

Search our weather history database for the weather conditions in past years. The results will help you decide how hot, cold, wet, or windy it might be!

Date:

Astronomy

Nov. 01, 2012 Rise Set
Actual Time 7:35 AM EDT 6:22 PM EDT
Civil Twilight 7:09 AM EDT 6:48 PM EDT
Nautical Twilight 6:39 AM EDT 7:18 PM EDT
Astronomical Twilight 6:10 AM EDT 7:47 PM EDT
Moon 8:24 PM EDT (11/1) 10:00 AM EDT (11/1)
Length of Visible Light 11h 39m
Length of Day
10h 47m
Waning Gibbous, 93% of the Moon is Illuminated
Nov 1
Waning Gibbous
Nov 6
Last Quarter
Nov 13
New
Nov 20
First Quarter
Nov 28
Full

Hourly Weather History & Observations

Time (EDT) Temp. Windchill Dew Point Humidity Pressure Visibility Wind Dir Wind Speed Gust Speed Precip Events Conditions
12:15 AM 48.2 °F - 32.0 °F 54% 29.81 in 10.0 mi WSW 5.8 mph - N/A   Clear
12:35 AM 48.2 °F - 32.0 °F 54% 29.81 in 10.0 mi WSW 5.8 mph - N/A   Clear
12:55 AM 48.2 °F - 32.0 °F 54% 29.81 in 10.0 mi WSW 6.9 mph - N/A   Clear
1:35 AM 48.2 °F - 30.2 °F 50% 29.80 in 10.0 mi WSW 6.9 mph - N/A   Clear
1:55 AM 46.4 °F 43.5 °F 30.2 °F 53% 29.81 in 10.0 mi West 5.8 mph - N/A   Clear
2:15 AM 44.6 °F 43.1 °F 30.2 °F 57% 29.81 in 10.0 mi West 3.5 mph - N/A   Clear
2:35 AM 44.6 °F 40.7 °F 30.2 °F 57% 29.80 in 10.0 mi West 6.9 mph - N/A   Clear
2:55 AM 42.8 °F 38.0 °F 33.8 °F 70% 29.80 in 10.0 mi West 8.1 mph - N/A   Clear
3:15 AM 42.8 °F 38.0 °F 32.0 °F 66% 29.81 in 10.0 mi West 8.1 mph - N/A   Clear
3:35 AM 42.8 °F 38.6 °F 32.0 °F 66% 29.81 in 10.0 mi West 6.9 mph - N/A   Clear
3:55 AM 42.8 °F 38.6 °F 32.0 °F 66% 29.81 in 10.0 mi West 6.9 mph - N/A   Clear
4:15 AM 41.0 °F 36.4 °F 32.0 °F 70% 29.81 in 10.0 mi West 6.9 mph - N/A   Clear
4:35 AM 39.2 °F 35.9 °F 30.2 °F 70% 29.81 in 10.0 mi West 4.6 mph - N/A   Clear
4:55 AM 39.2 °F 35.0 °F 32.0 °F 75% 29.81 in 10.0 mi West 5.8 mph - N/A   Clear
5:15 AM 41.0 °F 35.8 °F 30.2 °F 65% 29.82 in 10.0 mi WSW 8.1 mph - N/A   Clear
5:35 AM 41.0 °F 35.8 °F 32.0 °F 70% 29.81 in 10.0 mi WSW 8.1 mph - N/A   Clear
5:47 AM 41.0 °F 35.8 °F 30.2 °F 65% 29.82 in 10.0 mi West 8.1 mph - N/A   Clear
6:50 AM 39.2 °F 34.2 °F 32.0 °F 75% 29.82 in 10.0 mi West 6.9 mph - N/A   Clear
7:48 AM 39.2 °F 33.0 °F 33.8 °F 81% 29.84 in 10.0 mi West 9.2 mph - N/A   Clear
8:45 AM 42.8 °F 38.0 °F 33.8 °F 70% 29.85 in 10.0 mi West 8.1 mph - N/A   Clear
9:46 AM 48.2 °F - 30.2 °F 50% 29.86 in 10.0 mi West 10.4 mph - N/A   Clear
10:45 AM 53.6 °F - 32.0 °F 44% 29.86 in 10.0 mi NNW 9.2 mph - N/A   Clear
11:45 AM 57.2 °F - 30.2 °F 36% 29.85 in 10.0 mi WNW 11.5 mph - N/A   Clear
12:45 PM 60.8 °F - 28.4 °F 29% 29.83 in 10.0 mi West 13.8 mph - N/A   Clear
1:45 PM 60.8 °F - 28.4 °F 29% 29.80 in 10.0 mi West 11.5 mph - N/A   Clear
2:45 PM 60.8 °F - 28.4 °F 29% 29.78 in 10.0 mi WNW 9.2 mph 15.0 mph N/A   Clear
3:45 PM 62.6 °F - 28.4 °F 27% 29.78 in 10.0 mi NW 11.5 mph - N/A   Clear
4:45 PM 60.8 °F - 30.2 °F 31% 29.79 in 10.0 mi WNW 11.5 mph 19.6 mph N/A   Clear
6:45 PM 55.4 °F - 33.8 °F 44% 29.83 in 10.0 mi West 5.8 mph - N/A   Clear
7:45 PM 46.4 °F 43.5 °F 37.4 °F 71% 29.86 in 10.0 mi West 5.8 mph - N/A   Clear
8:50 PM 44.6 °F 41.4 °F - N/A% 29.87 in 10.0 mi West 5.8 mph - N/A   Clear
9:50 PM 48.2 °F - 35.6 °F 62% 29.89 in 10.0 mi WSW 6.9 mph - N/A   Clear
10:55 PM 46.4 °F 45.2 °F 33.8 °F 62% 29.90 in 10.0 mi WSW 3.5 mph - N/A   Clear
11:15 PM 46.4 °F 43.5 °F 32.0 °F 57% 29.90 in 10.0 mi WSW 5.8 mph - N/A   Clear
11:35 PM 46.4 °F 43.5 °F 32.0 °F 57% 29.90 in 10.0 mi WSW 5.8 mph - N/A   Clear
11:55 PM 44.6 °F 41.4 °F 32.0 °F 61% 29.90 in 10.0 mi WSW 5.8 mph - N/A   Clear